HVDC transfer

From www.emi.ea.govt.nz provided by the Electricity Authority (New Zealand)
Run at: 20240505072609

Parameters
Date range,30 Oct 2020 - 30 Oct 2020
Time scale,Trading period
Show,Average flow (MW)

Period start,Period end,Trading period,Direction,Energy transfer (GWh),Peak flow (MW),Average flow (MW)
30/10/2020 00:00:00,30/10/2020 00:30:00,1,Northward at Haywards,0.194,387,387
30/10/2020 00:30:00,30/10/2020 01:00:00,2,Northward at Haywards,0.202,403,403
30/10/2020 01:00:00,30/10/2020 01:30:00,3,Northward at Haywards,0.181,361,361
30/10/2020 01:30:00,30/10/2020 02:00:00,4,Northward at Haywards,0.207,414,414
30/10/2020 02:00:00,30/10/2020 02:30:00,5,Northward at Haywards,0.164,328,328
30/10/2020 02:30:00,30/10/2020 03:00:00,6,Northward at Haywards,0.154,307,307
30/10/2020 03:00:00,30/10/2020 03:30:00,7,Northward at Haywards,0.144,288,288
30/10/2020 03:30:00,30/10/2020 04:00:00,8,Northward at Haywards,0.147,293,293
30/10/2020 04:00:00,30/10/2020 04:30:00,9,Northward at Haywards,0.140,279,279
30/10/2020 04:30:00,30/10/2020 05:00:00,10,Northward at Haywards,0.174,347,347
30/10/2020 05:00:00,30/10/2020 05:30:00,11,Northward at Haywards,0.224,448,448
30/10/2020 05:30:00,30/10/2020 06:00:00,12,Northward at Haywards,0.250,500,500
30/10/2020 06:00:00,30/10/2020 06:30:00,13,Northward at Haywards,0.275,550,550
30/10/2020 06:30:00,30/10/2020 07:00:00,14,Northward at Haywards,0.303,605,605
30/10/2020 07:00:00,30/10/2020 07:30:00,15,Northward at Haywards,0.318,635,635
30/10/2020 07:30:00,30/10/2020 08:00:00,16,Northward at Haywards,0.326,652,652
30/10/2020 08:00:00,30/10/2020 08:30:00,17,Northward at Haywards,0.352,703,703
30/10/2020 08:30:00,30/10/2020 09:00:00,18,Northward at Haywards,0.361,722,722
30/10/2020 09:00:00,30/10/2020 09:30:00,19,Northward at Haywards,0.351,702,702
30/10/2020 09:30:00,30/10/2020 10:00:00,20,Northward at Haywards,0.346,691,691
30/10/2020 10:00:00,30/10/2020 10:30:00,21,Northward at Haywards,0.345,689,689
30/10/2020 10:30:00,30/10/2020 11:00:00,22,Northward at Haywards,0.347,694,694
30/10/2020 11:00:00,30/10/2020 11:30:00,23,Northward at Haywards,0.341,682,682
30/10/2020 11:30:00,30/10/2020 12:00:00,24,Northward at Haywards,0.341,682,682
30/10/2020 12:00:00,30/10/2020 12:30:00,25,Northward at Haywards,0.335,670,670
30/10/2020 12:30:00,30/10/2020 13:00:00,26,Northward at Haywards,0.320,640,640
30/10/2020 13:00:00,30/10/2020 13:30:00,27,Northward at Haywards,0.300,599,599
30/10/2020 13:30:00,30/10/2020 14:00:00,28,Northward at Haywards,0.292,584,584
30/10/2020 14:00:00,30/10/2020 14:30:00,29,Northward at Haywards,0.280,559,559
30/10/2020 14:30:00,30/10/2020 15:00:00,30,Northward at Haywards,0.294,587,587
30/10/2020 15:00:00,30/10/2020 15:30:00,31,Northward at Haywards,0.290,579,579
30/10/2020 15:30:00,30/10/2020 16:00:00,32,Northward at Haywards,0.295,590,590
30/10/2020 16:00:00,30/10/2020 16:30:00,33,Northward at Haywards,0.292,583,583
30/10/2020 16:30:00,30/10/2020 17:00:00,34,Northward at Haywards,0.286,571,571
30/10/2020 17:00:00,30/10/2020 17:30:00,35,Northward at Haywards,0.256,512,512
30/10/2020 17:30:00,30/10/2020 18:00:00,36,Northward at Haywards,0.233,466,466
30/10/2020 18:00:00,30/10/2020 18:30:00,37,Northward at Haywards,0.239,477,477
30/10/2020 18:30:00,30/10/2020 19:00:00,38,Northward at Haywards,0.234,468,468
30/10/2020 19:00:00,30/10/2020 19:30:00,39,Northward at Haywards,0.243,486,486
30/10/2020 19:30:00,30/10/2020 20:00:00,40,Northward at Haywards,0.261,522,522
30/10/2020 20:00:00,30/10/2020 20:30:00,41,Northward at Haywards,0.262,523,523
30/10/2020 20:30:00,30/10/2020 21:00:00,42,Northward at Haywards,0.233,466,466
30/10/2020 21:00:00,30/10/2020 21:30:00,43,Northward at Haywards,0.156,312,312
30/10/2020 21:30:00,30/10/2020 22:00:00,44,Northward at Haywards,0.139,278,278
30/10/2020 22:00:00,30/10/2020 22:30:00,45,Northward at Haywards,0.145,289,289
30/10/2020 22:30:00,30/10/2020 23:00:00,46,Northward at Haywards,0.106,212,212
30/10/2020 23:00:00,30/10/2020 23:30:00,47,Northward at Haywards,0.118,235,235
30/10/2020 23:30:00,31/10/2020 00:00:00,48,Northward at Haywards,0.097,194,194
